Location: Altmatt
(47.1333°N, 8.7000°E)
Time: 08:00:16
(UTC+00:00)

Cosmos 292 Rocket - Pass Details

Date: 13 July 2020
Orbit: 674 x 694 km, 74.0° (Epoch: 04 August)

Event Time Altitude Azimuth Distance (km) Brightness Sun altitude
Rises 23:31:03 0° 336° (NNW) 3,056 8.3 -21.2°
Reaches altitude 10° 23:33:22 10° 335° (NNW) 2,133 7.2 -21.2°
Maximum altitude 23:38:09 74° 251° (WSW) 710 3.7 -21.2°
Enters shadow 23:39:08 54° 185° (S) 821 3.7 -21.2°
